Flag for Canada Weather past 2 weeks in Fredericton, New Brunswick, Canada

Now
7 °F

Clear.


Feels Like: -4 °F
Forecast: -1 / 24 °F
Wind: 6 mph from Southwest

Location: Fredericton

Current Time: Mar 1, 2015 at 12:47:41 AM

Latest Report: Mar 1, 2015 at 12:00 AM


Visibility: 9 mi

Pressure: 30.60 "Hg

Humidity: 66%

Dew point: -2 °F

Location of FrederictonLocation

Historic Weather in Fredericton — Graph

°F

Fredericton temperature yesterday

Maximum temperature yesterday: 27 °F (at 4:02 PM)
Minimum temperature yesterday: -13 °F (at 5:00 AM)
Average temperature yesterday: 10 °F

Past Weeks' High & Low Weather Summary

 TemperatureHumidityPressure
High32 °F (Feb 22, 1:00 AM)100% (Feb 19, 9:00 PM)30.61 "Hg (Feb 19, 9:00 PM)
Low-15 °F (Feb 14, 6:00 AM)28% (Feb 28, 4:57 PM)29.19 "Hg (Feb 16, 12:00 AM)
Average10 °F70%29.90 "Hg
* Reported Feb 13 11:00 PM — Feb 28 11:00 PM, Fredericton, Weather by CustomWeather, © 2015

Note: Actual official high and low records may vary slightly from our data, if they occured in-between our weather recording intervals... More about our weather records

Advertising

Fredericton weather history for previous 24 hours

 ConditionsComfort  
Time TempWeatherWind HumidityBarometerVisibility
11:00 PM
Sat, Feb 28
7 °FClear.2 mph66%30.60 "Hg9 mi
10:00 PM12 °FClear.9 mph57%30.58 "Hg9 mi
9:00 PM16 °FClear.9 mph53%30.57 "Hg9 mi
8:00 PM16 °FClear.8 mph48%30.56 "Hg9 mi
7:00 PM18 °FClear.10 mph45%30.55 "Hg9 mi
6:00 PM25 °FSunny.10 mph33%30.53 "Hg9 mi
5:54 PM25 °FSunny.13 mph33%30.53 "Hg9 mi
5:04 PM27 °FLight snow. Sunny.15 mph28%30.53 "Hg3 mi
4:57 PM27 °FLight snow. Sunny.13 mph28%30.53 "Hg9 mi
4:02 PM27 °FSunny.14 mph36%30.54 "Hg9 mi
3:00 PM25 °FLight snow. Sunny.13 mph36%30.54 "Hg9 mi
2:52 PM25 °FLight snow. Sunny.16 mph36%30.54 "Hg9 mi
2:00 PM25 °FSunny.15 mph33%30.55 "Hg9 mi
1:56 PM25 °FSunny.14 mph36%30.55 "Hg9 mi
1:00 PM21 °FSunny.13 mph38%30.58 "Hg9 mi
12:00 PM21 °FSunny.9 mph35%30.59 "Hg9 mi
11:00 AM16 °FSunny.10 mph45%30.61 "Hg9 mi
10:00 AM5 °FSunny.No wind55%30.61 "Hg9 mi
9:00 AM-4 °FSunny.7 mph71%30.61 "Hg9 mi
8:00 AM-11 °FSunny.7 mph76%30.58 "Hg9 mi
7:00 AM-13 °FClear.8 mph83%30.55 "Hg9 mi
6:00 AM-13 °FClear.7 mph83%30.54 "Hg9 mi
5:00 AM-13 °FClear.8 mph83%30.51 "Hg9 mi
4:00 AM-11 °FClear.6 mph76%30.49 "Hg9 mi
3:00 AM-8 °FClear.6 mph77%30.47 "Hg9 mi
2:00 AM-4 °FClear.6 mph77%30.45 "Hg9 mi
1:00 AM-6 °FClear.7 mph77%30.42 "Hg9 mi
12:00 AM-4 °FClear.6 mph77%30.41 "Hg9 mi
Weather by CustomWeather, © 2015

See weather overviewHow to use our weather pages